Location: Cudham
(51.3000°N, 0.0667°E)
Time: 00:54:13
(UTC+00:00)

Cosmos 1726 Rocket - Pass Details

Date: 19 May 2025
Orbit: 554 x 664 km, 82.5° (Epoch: 18 June)

Event Time Altitude Azimuth Distance (km) Brightness Sun altitude
Rises 20:19:05 0° 186° (S) 2,961 6.7 -4.4°
Reaches altitude 10° 20:21:21 10° 185° (S) 2,042 5.9 -4.7°
Maximum altitude 20:25:54 82° 98° (E) 647 3.6 -5.2°
Drops below altitude 10° 20:30:20 10° 12° (NNE) 1,995 6.6 -5.7°
Sets 20:32:32 0° 12° (NNE) 2,887 7.5 -6.0°
